Location: Berlin
(52.5170°N, 13.4000°E)
Time: 13:52:44
(UTC+02:00)

ISS - Pass Details

Date: 20 July 2018
Orbit: 402 x 408 km, 51.6° (Epoch: 21 July)

Event Time Altitude Azimuth Distance (km) Brightness Sun altitude
Rises 22:10:03 0° 208° (SSW) 2,311 -0.2 -6.9°
Reaches altitude 10° 22:12:35 10° 188° (S) 1,457 -1.4 -7.1°
Maximum altitude 22:14:49 17° 144° (SE) 1,098 -2.3 -7.3°
Drops below altitude 10° 22:17:05 10° 101° (E) 1,466 -1.5 -7.6°
Sets 22:19:38 0° 81° (E) 2,331 -0.3 -7.8°
